Location: Borz?cin
(51.1714°N, 19.6030°E)
Time: 07:00:36
(UTC+00:00)

H-2A R/B - Pass Details

Date: 19 May 2025
Orbit: 492 x 574 km, 98.2° (Epoch: 16 June)

Event Time Altitude Azimuth Distance (km) Brightness Sun altitude
Exits shadow 22:51:23 26° 123° (ESE) 1,107 3.6 -18.8°
Maximum altitude 22:53:09 43° 69° (ENE) 782 3.2 -18.8°
Drops below altitude 10° 22:56:50 10° 358° (N) 1,801 6.2 -18.7°
Sets 22:59:00 0° 351° (N) 2,682 7.3 -18.7°
